Wind_Speed
19 19 20 21 22 22 31 30 27 29 30 29 28 18 16 19 22 21 17 16 18 21 19 19 17 16 18 22 25 26 26 27 29 31 32 32 32 29 28 30 29 31 34 34 31 31 33 29 25
13 19 19 17 19 24 23 32 29 27 25 25 29 25 29 27 25 26 24 25 22 22 22 27 28 27 26 26 29 30 30 30 33 32 31 30 31 33 35 36 38 38 39 33 29 31 32 29 26
7 10 22 21 20 22 25 16 9 20 25 22 25 24 25 29 27 29 30 29 26 25 27 30 30 29 28 29 31 33 33 34 31 32 33 32 33 34 38 36 38 32 31 29 29 31 29 25 25
10 11 13 19 20 20 29 26 19 18 22 36 32 29 26 28 29 31 31 29 27 30 31 31 28 29 32 35 34 37 36 33 33 34 33 35 37 39 36 34 32 28 26 30 26 31 30 22 24
14 15 15 13 16 22 25 23 20 26 33 31 30 31 26 26 25 29 24 22 26 28 27 28 29 33 38 38 38 38 36 33 34 35 36 37 41 40 31 31 30 27 27 29 30 31 29 23 23
14 17 17 11 16 15 20 20 23 27 23 20 26 28 31 31 27 29 33 38 34 32 35 38 38 40 40 40 40 38 36 36 36 37 38 38 35 32 28 29 29 29 29 31 30 29 25 25 23
18 16 15 17 17 13 16 19 13 29 26 20 21 26 25 28 20 24 26 29 31 38 39 37 36 39 40 39 38 34 33 34 35 35 33 32 31 36 33 34 35 33 32 34 30 30 27 25 24
20 16 12 13 17 18 23 20 26 27 28 30 28 27 27 24 25 29 24 25 28 31 34 34 38 39 42 36 38 37 37 36 34 34 34 34 35 37 38 37 38 36 35 34 31 27 27 27 24
20 10 7 10 14 20 20 22 26 27 26 28 33 35 32 23 21 21 25 33 30 27 28 29 33 35 34 35 37 37 37 38 38 41 41 38 36 38 37 37 38 38 37 34 33 30 28 29 25
19 11 7 12 16 23 24 24 27 30 31 31 28 25 40 33 28 24 26 23 24 27 28 31 32 34 36 37 39 40 40 41 42 43 44 44 41 40 40 40 39 38 37 36 34 32 28 28 28
22 11 11 15 21 21 25 29 31 30 33 33 37 34 33 29 35 43 35 34 34 30 30 31 31 32 32 34 37 39 41 42 43 44 45 43 41 41 39 36 35 35 36 37 36 33 29 28 27
29 23 17 26 29 29 29 28 30 35 38 40 38 35 29 30 33 35 31 34 34 34 33 36 35 34 36 38 40 42 41 41 41 41 40 39 38 38 38 38 37 37 37 37 37 34 30 29 28
32 26 21 30 36 36 34 30 29 33 40 44 45 44 44 43 42 45 40 39 37 35 37 39 41 42 41 44 45 46 46 46 45 44 42 42 41 41 40 41 40 38 37 37 36 36 34 33 32
47 36 30 31 35 37 35 32 32 33 40 47 45 49 52 49 45 45 47 46 44 41 41 42 43 44 46 48 48 48 48 48 47 47 47 46 46 44 44 43 43 42 41 40 39 38 38 34 32
44 40 40 41 38 38 40 40 40 39 38 45 51 41 41 48 47 46 46 45 48 48 47 46 45 45 47 48 47 45 45 45 45 45 47 48 46 45 45 45 43 42 42 43 41 40 39 35 33
54 52 50 47 46 48 45 44 46 45 48 47 48 49 47 49 49 47 46 49 49 51 51 51 49 48 46 46 45 45 45 45 44 45 46 45 44 45 46 45 45 43 43 42 41 42 39 37 37
54 54 53 48 51 55 52 49 48 50 50 53 52 50 49 48 49 51 53 54 54 51 51 50 50 49 48 48 48 48 47 47 46 46 46 43 43 44 45 45 46 45 44 46 45 42 40 38 38
59 57 59 57 59 58 50 50 49 54 57 53 52 54 54 52 52 53 55 55 52 52 51 49 50 52 53 51 52 53 53 53 49 46 47 44 42 46 45 45 43 44 46 44 46 45 42 43 43
60 59 59 60 63 57 51 47 51 58 62 60 61 58 57 59 60 59 54 53 52 52 52 53 54 55 56 55 55 55 56 55 53 51 50 51 49 47 44 46 49 50 47 48 47 46 45 46 48
65 63 62 62 63 61 58 55 53 58 60 61 61 61 60 57 54 55 56 57 57 56 56 56 58 58 58 57 57 58 56 56 56 54 52 53 49 49 52 52 51 50 49 48 48 49 50 49 49
61 61 61 62 64 62 61 59 53 53 54 54 60 59 58 59 58 58 59 60 61 60 60 60 60 59 59 60 61 61 61 59 58 58 58 58 57 57 57 57 58 57 55 53 52 52 51 53 50
57 60 61 60 57 57 57 50 49 51 53 56 59 56 58 61 63 62 63 64 65 65 65 65 63 62 62 63 63 65 64 63 62 61 60 62 62 63 64 64 61 62 62 62 59 57 56 57 57
57 61 61 59 56 54 51 52 53 53 54 56 55 57 60 64 67 67 68 69 68 68 68 67 67 67 67 67 67 67 66 65 64 63 62 63 64 62 62 62 63 64 65 63 62 63 62 64 65
62 64 64 64 62 56 59 62 59 59 63 59 59 61 64 66 67 67 69 69 69 69 68 68 70 70 70 70 69 67 65 66 66 66 65 63 62 62 64 66 69 70 70 72 71 74 72 72 69
68 69 68 68 69 64 70 71 66 64 64 64 66 66 66 68 69 69 70 71 70 70 70 70 71 71 70 70 69 68 68 69 69 70 69 68 67 66 66 66 66 67 68 69 70 69 68 69 69
74 76 73 74 73 70 76 76 71 70 70 68 65 67 71 72 72 72 73 72 73 72 71 70 70 70 70 70 71 71 70 72 72 72 72 72 72 71 70 70 70 70 72 74 75 75 75 75 75
76 75 78 81 79 77 77 78 76 73 73 71 71 70 73 75 76 76 75 73 72 74 73 73 73 72 71 72 73 72 73 73 73 73 75 75 75 75 75 76 77 77 79 80 81 81 82 83 83
78 75 81 82 81 82 80 82 79 75 75 77 77 75 75 76 75 75 73 73 74 75 74 73 73 75 74 75 76 76 76 76 76 78 78 78 79 80 81 82 83 83 85 86 88 89 89 89 89
80 78 78 81 83 83 84 82 80 79 76 78 79 77 78 79 80 81 82 82 81 80 80 80 80 80 77 77 78 80 81 80 80 80 82 84 86 87 87 88 90 91 92 93 94 95 94 93 91
73 76 78 82 85 87 86 84 84 84 81 82 84 82 82 83 83 83 87 87 86 87 87 87 84 86 86 85 85 85 86 82 82 84 86 88 89 91 92 94 95 96 96 96 96 95 93 94 96
Wind_Direction
203 209 210 214 216 207 218 213 227 235 237 228 232 227 245 260 249 250 245 261 265 271 258 282 282 287 289 297 297 299 296 292 294 300 300 304 304 309 311 310 314 316 320 322 323 331 333 325 319
208 209 216 209 218 224 229 221 224 228 240 251 242 247 245 244 256 252 262 260 267 272 267 271 289 295 293 294 298 301 302 304 305 307 304 309 311 310 309 313 309 306 309 322 324 329 328 326 325
216 221 217 209 214 215 226 225 231 220 228 229 238 242 251 259 261 261 261 263 267 269 271 274 282 287 291 295 299 302 303 304 301 302 301 304 305 305 311 316 318 315 314 315 319 324 329 329 329
220 230 230 217 219 226 230 232 235 230 244 241 246 246 252 248 254 263 255 264 275 270 272 272 273 281 289 292 295 298 300 299 297 299 298 300 303 305 314 313 316 320 318 322 317 323 324 331 324
222 227 234 226 221 224 235 239 240 248 249 246 241 244 253 270 273 263 256 264 265 266 260 263 277 283 288 288 292 294 296 295 293 296 295 297 302 304 308 311 310 316 315 314 315 319 319 320 324
233 234 222 220 239 246 234 240 236 244 250 244 240 247 251 266 265 247 265 269 266 260 261 275 281 285 285 288 289 292 291 293 296 293 293 298 302 302 303 307 305 310 311 311 311 316 315 314 318
236 243 226 208 220 223 241 232 224 240 233 220 233 220 235 249 252 272 287 282 284 267 268 274 279 281 283 285 288 288 283 288 291 291 293 294 295 294 300 301 302 304 306 306 306 309 312 309 309
242 230 228 226 214 227 232 235 241 236 227 229 241 239 241 259 276 278 288 289 289 290 276 277 280 281 283 286 291 292 293 292 294 288 291 290 290 290 293 294 299 301 302 301 300 303 304 302 300
240 207 219 235 226 224 231 235 239 243 248 239 224 232 238 255 254 269 285 282 281 284 285 286 284 285 286 286 289 290 290 290 289 289 291 291 293 292 293 293 296 298 296 296 296 295 295 296 296
219 225 240 244 230 234 231 238 243 236 238 241 238 251 236 256 238 254 275 274 273 277 280 282 285 286 288 290 291 291 290 288 287 287 288 291 291 292 292 293 293 292 293 293 294 295 292 291 294
239 248 249 264 253 243 243 242 246 240 237 254 244 248 262 265 258 270 282 284 283 280 284 285 286 288 290 291 293 292 290 288 287 287 289 291 289 290 291 291 291 292 291 291 292 290 288 288 292
249 249 242 269 266 252 251 249 253 253 253 247 238 261 266 266 274 275 273 275 282 288 289 286 283 283 289 291 290 289 289 290 290 289 288 287 287 285 284 284 284 284 284 285 285 285 284 285 286
255 262 245 259 255 252 249 249 254 265 272 269 267 263 260 263 265 272 275 277 284 285 288 290 293 293 291 289 288 289 288 287 285 283 282 281 282 283 282 282 281 283 286 288 286 286 288 285 283
265 270 259 259 266 254 260 268 261 260 258 263 263 263 263 267 273 276 277 276 277 277 280 283 285 287 289 291 289 288 286 285 282 279 279 278 278 280 283 285 288 287 285 282 281 282 282 282 286
260 261 260 258 258 256 267 272 268 262 260 257 267 270 255 264 266 268 273 280 282 280 276 276 278 281 286 288 288 288 288 287 287 283 280 280 282 282 284 282 281 281 282 279 277 278 277 278 277
261 265 262 260 257 258 268 273 269 271 266 262 264 266 269 265 267 268 274 281 285 284 282 280 281 282 283 284 286 286 285 284 284 283 284 284 283 281 279 278 278 278 278 277 278 277 276 279 277
258 257 257 256 259 265 269 273 271 270 271 264 265 268 273 275 274 274 274 276 278 277 278 280 282 284 284 284 285 286 285 284 285 283 284 285 282 282 281 279 279 278 276 279 275 274 274 272 273
262 262 255 251 259 266 269 265 267 267 269 270 268 267 269 269 270 270 273 275 275 275 277 278 280 282 284 287 288 288 288 287 286 282 283 285 284 281 278 277 275 276 282 280 280 278 274 273 270
263 266 264 258 260 260 260 258 261 267 270 271 270 268 267 269 271 272 274 275 276 277 277 279 280 283 284 285 286 286 286 287 285 283 280 279 279 279 280 281 278 282 279 278 278 277 273 270 271
264 265 266 264 259 257 256 258 258 261 265 268 267 267 271 271 271 273 274 275 277 278 279 281 281 281 282 283 284 285 285 283 282 281 280 279 278 276 279 282 282 283 284 281 280 279 278 273 269
263 264 264 262 262 261 261 260 256 257 258 262 265 265 267 268 269 271 274 277 279 280 279 280 280 281 281 282 282 282 281 279 277 276 276 276 275 275 277 276 276 278 281 282 281 281 281 276 273
263 263 263 263 262 260 258 257 258 258 259 259 263 266 270 273 273 275 274 276 276 277 279 280 279 279 280 280 281 281 280 278 278 277 275 274 274 274 277 278 277 279 278 280 280 278 277 274 275
263 264 263 263 260 257 257 255 259 260 259 257 262 265 267 268 271 272 273 274 275 276 277 277 277 279 280 281 282 281 280 280 280 279 277 275 273 275 275 275 275 275 276 278 279 279 279 278 277
265 265 265 264 261 257 261 255 252 261 262 263 262 264 266 267 268 269 271 273 275 276 276 277 278 278 279 279 280 280 280 281 281 280 280 280 278 276 274 272 272 272 271 270 270 274 276 276 276
264 264 265 267 265 261 261 257 254 260 263 265 265 266 267 269 270 270 272 274 276 276 276 276 277 277 278 278 278 279 280 280 280 280 280 280 280 278 278 278 277 277 277 277 278 277 276 276 275
264 264 266 266 266 264 262 261 259 261 263 266 267 269 268 268 270 271 271 272 274 275 275 276 276 276 275 276 276 277 278 278 278 279 280 280 279 279 278 277 278 278 278 278 277 277 276 276 276
262 264 261 261 262 263 265 265 263 262 264 265 266 266 268 269 270 271 273 274 274 275 277 277 276 275 276 277 278 279 278 279 280 279 278 278 278 278 278 278 277 277 277 277 277 277 276 276 276
264 263 264 265 265 264 262 264 265 264 263 263 263 263 265 267 268 270 271 272 273 273 274 274 276 277 277 279 279 279 278 278 279 279 279 279 279 279 280 280 280 280 280 280 280 280 280 280 279
264 261 261 265 264 263 264 265 267 265 263 264 265 265 265 266 267 268 269 268 269 270 272 272 274 275 276 276 277 278 279 279 278 279 279 280 281 281 281 281 282 281 280 279 280 280 281 281 280
261 262 262 261 263 263 264 266 264 264 264 263 263 264 265 265 266 267 269 269 270 271 272 273 274 276 278 277 277 277 277 275 273 274 275 276 277 278 279 279 279 280 282 283 282 283 282 281 281
Height
10952 10953 10957 10961 10963 10962 10963 10967 10970 10970 10971 10974 10977 10975 10972 10971 10974 10973 10974 10974 10975 10976 10975 10976 10977 10977 10976 10975 10973 10972 10971 10970 10968 10966 10964 10963 10960 10958 10957 10956 10954 10952 10948 10946 10944 10940 10936 10931 10929
10951 10952 10955 10958 10959 10959 10960 10964 10966 10971 10971 10972 10973 10975 10970 10971 10974 10972 10973 10972 10973 10973 10973 10973 10974 10974 10973 10971 10970 10969 10968 10966 10964 10963 10961 10960 10958 10955 10954 10953 10950 10947 10945 10944 10942 10937 10933 10929 10926
10949 10950 10951 10956 10957 10959 10959 10966 10966 10967 10968 10964 10964 10966 10964 10966 10969 10968 10969 10969 10969 10970 10970 10970 10970 10970 10970 10969 10967 10965 10964 10962 10961 10960 10959 10957 10954 10952 10951 10948 10945 10941 10940 10939 10938 10934 10930 10926 10921
10948 10948 10949 10955 10960 10959 10958 10967 10964 10966 10964 10960 10962 10961 10961 10961 10965 10964 10962 10964 10965 10965 10965 10965 10965 10965 10965 10965 10964 10962 10960 10958 10956 10956 10955 10953 10950 10947 10947 10945 10941 10937 10936 10936 10934 10931 10927 10924 10918
10946 10946 10947 10954 10955 10956 10958 10961 10960 10960 10961 10960 10960 10958 10956 10955 10960 10960 10959 10960 10960 10960 10960 10960 10960 10960 10960 10960 10959 10958 10956 10954 10952 10951 10951 10949 10945 10943 10943 10941 10937 10933 10932 10932 10930 10928 10923 10920 10917
10944 10943 10946 10953 10952 10955 10955 10957 10958 10956 10956 10956 10955 10955 10952 10952 10959 10955 10954 10954 10954 10954 10955 10954 10954 10954 10954 10954 10953 10953 10951 10949 10948 10946 10946 10944 10941 10938 10937 10936 10933 10929 10928 10927 10925 10923 10920 10917 10914
10942 10941 10947 10950 10949 10954 10952 10951 10952 10952 10954 10951 10951 10950 10946 10943 10949 10951 10948 10948 10948 10948 10948 10948 10948 10948 10948 10948 10948 10947 10947 10945 10942 10940 10939 10938 10936 10933 10932 10931 10928 10925 10923 10922 10921 10918 10917 10914 10911
10938 10941 10943 10946 10949 10947 10946 10947 10944 10946 10949 10948 10947 10947 10942 10941 10942 10942 10943 10943 10941 10941 10941 10943 10943 10943 10943 10942 10942 10941 10941 10939 10937 10934 10933 10932 10931 10928 10925 10925 10922 10919 10917 10917 10916 10915 10913 10910 10908
10935 10940 10941 10944 10944 10943 10941 10940 10940 10942 10941 10941 10941 10942 10941 10940 10939 10939 10939 10938 10937 10936 10937 10938 10939 10938 10937 10935 10935 10935 10934 10933 10931 10929 10927 10926 10924 10922 10920 10919 10916 10913 10910 10910 10909 10909 10908 10904 10903
10932 10937 10939 10937 10939 10937 10937 10937 10937 10939 10940 10936 10934 10939 10938 10938 10936 10936 10934 10933 10932 10932 10932 10932 10933 10932 10930 10930 10929 10928 10927 10926 10924 10922 10920 10920 10918 10916 10914 10913 10910 10907 10903 10902 10901 10902 10902 10899 10897
10928 10934 10937 10933 10931 10932 10933 10934 10932 10934 10936 10933 10931 10933 10935 10932 10932 10930 10928 10927 10927 10928 10927 10926 10925 10926 10924 10922 10922 10920 10918 10917 10916 10914 10912 10912 10911 10909 10908 10907 10904 10901 10898 10895 10893 10893 10894 10892 10891
10922 10927 10935 10929 10927 10926 10925 10925 10927 10928 10929 10929 10927 10927 10927 10927 10925 10924 10922 10920 10920 10917 10917 10919 10920 10922 10917 10915 10914 10912 10910 10909 10908 10905 10904 10904 10903 10903 10901 10897 10896 10893 10890 10887 10884 10883 10884 10885 10884
10912 10922 10928 10925 10921 10918 10919 10922 10923 10920 10917 10918 10919 10917 10919 10918 10918 10917 10916 10915 10915 10913 10910 10908 10905 10906 10907 10907 10905 10902 10901 10899 10897 10897 10896 10894 10894 10893 10892 10890 10888 10886 10884 10881 10879 10876 10877 10878 10877
10902 10915 10920 10916 10915 10912 10912 10918 10918 10916 10913 10909 10910 10909 10910 10910 10910 10908 10906 10907 10908 10908 10907 10905 10904 10900 10898 10895 10894 10893 10893 10892 10890 10888 10886 10886 10886 10884 10883 10881 10879 10878 10876 10874 10871 10870 10869 10869 10869
10896 10904 10910 10910 10906 10904 10905 10908 10906 10907 10908 10905 10899 10901 10901 10902 10902 10901 10897 10895 10894 10894 10897 10896 10895 10894 10892 10888 10887 10885 10882 10880 10877 10876 10875 10877 10877 10876 10874 10871 10868 10867 10866 10864 10863 10862 10861 10861 10860
10887 10894 10898 10901 10898 10897 10899 10899 10895 10894 10892 10894 10893 10892 10891 10892 10892 10891 10889 10886 10883 10882 10883 10884 10885 10885 10883 10880 10879 10878 10873 10871 10869 10866 10865 10867 10867 10865 10863 10861 10858 10857 10855 10855 10855 10854 10852 10852 10850
10879 10883 10886 10891 10888 10886 10892 10894 10887 10882 10880 10881 10882 10881 10880 10879 10879 10878 10877 10877 10876 10874 10874 10873 10873 10873 10872 10870 10869 10867 10864 10862 10860 10857 10856 10858 10856 10853 10851 10850 10848 10847 10845 10844 10845 10845 10844 10843 10841
10865 10870 10876 10880 10875 10877 10882 10882 10879 10870 10866 10870 10871 10870 10870 10869 10868 10868 10867 10867 10865 10865 10864 10864 10863 10862 10861 10860 10857 10854 10852 10850 10851 10847 10845 10846 10844 10840 10839 10838 10838 10837 10836 10834 10833 10835 10836 10833 10832
10860 10858 10860 10865 10864 10867 10869 10872 10870 10862 10856 10858 10856 10855 10856 10857 10855 10855 10856 10855 10854 10853 10853 10851 10851 10851 10849 10848 10845 10843 10840 10837 10836 10836 10835 10833 10832 10827 10827 10827 10826 10825 10824 10822 10821 10821 10823 10824 10822
10848 10848 10848 10847 10850 10855 10857 10860 10861 10855 10850 10847 10844 10843 10843 10844 10844 10842 10841 10842 10842 10842 10842 10841 10840 10839 10837 10835 10833 10831 10828 10826 10823 10823 10822 10820 10817 10816 10815 10814 10813 10812 10812 10811 10809 10807 10809 10811 10811
10834 10835 10833 10834 10834 10839 10843 10845 10844 10843 10842 10841 10834 10835 10834 10832 10831 10832 10830 10829 10829 10829 10829 10828 10827 10825 10825 10822 10820 10817 10815 10813 10812 10809 10809 10806 10805 10804 10802 10801 10799 10799 10798 10797 10797 10797 10795 10795 10795
10821 10819 10819 10821 10823 10824 10823 10828 10832 10831 10831 10827 10826 10826 10824 10819 10818 10819 10817 10817 10816 10816 10815 10814 10812 10811 10809 10808 10806 10803 10799 10798 10796 10796 10795 10792 10791 10791 10789 10787 10786 10784 10783 10782 10782 10781 10781 10780 10780
10809 10802 10805 10806 10809 10811 10816 10817 10817 10818 10817 10816 10820 10819 10814 10809 10805 10806 10803 10801 10801 10800 10800 10799 10798 10796 10794 10792 10791 10788 10786 10783 10781 10779 10779 10778 10776 10774 10773 10771 10770 10768 10767 10766 10766 10765 10763 10762 10763
10792 10789 10788 10791 10794 10801 10800 10797 10804 10805 10799 10809 10808 10805 10802 10796 10793 10792 10787 10785 10785 10785 10785 10783 10781 10779 10778 10774 10773 10770 10770 10767 10764 10762 10761 10759 10759 10757 10756 10754 10753 10753 10751 10750 10749 10749 10747 10746 10745
10776 10774 10775 10774 10776 10787 10776 10779 10791 10794 10792 10790 10790 10789 10787 10780 10777 10776 10772 10770 10770 10768 10767 10766 10764 10762 10760 10758 10755 10752 10751 10748 10746 10744 10743 10741 10739 10738 10737 10736 10735 10733 10731 10729 10727 10727 10727 10726 10726
10760 10756 10761 10754 10756 10763 10757 10766 10779 10779 10777 10776 10775 10771 10768 10764 10760 10758 10757 10758 10753 10751 10751 10750 10748 10745 10743 10740 10738 10736 10734 10730 10728 10727 10725 10723 10720 10719 10718 10717 10716 10716 10713 10710 10708 10707 10706 10706 10704
10740 10741 10733 10730 10737 10740 10741 10745 10755 10762 10761 10760 10757 10755 10750 10746 10743 10739 10741 10739 10738 10732 10732 10731 10728 10726 10726 10722 10718 10717 10715 10712 10710 10707 10704 10703 10701 10699 10697 10697 10696 10694 10692 10688 10685 10684 10683 10682 10682
10719 10723 10716 10717 10721 10720 10722 10720 10731 10741 10742 10739 10737 10737 10735 10730 10727 10724 10725 10723 10719 10716 10717 10715 10708 10705 10708 10705 10700 10697 10696 10693 10692 10686 10684 10682 10679 10677 10674 10673 10672 10670 10668 10665 10660 10657 10655 10654 10654
10693 10702 10699 10694 10693 10695 10695 10703 10709 10712 10720 10716 10715 10718 10715 10712 10709 10706 10705 10704 10702 10697 10694 10696 10693 10687 10690 10687 10683 10677 10673 10672 10670 10666 10663 10660 10658 10656 10653 10648 10647 10644 10641 10638 10635 10630 10630 10627 10625
10676 10674 10677 10677 10673 10670 10674 10683 10689 10686 10690 10690 10690 10693 10691 10690 10688 10684 10680 10680 10682 10677 10674 10673 10674 10668 10667 10665 10661 10659 10653 10652 10649 10647 10643 10639 10637 10634 10630 10624 10621 10618 10615 10610 10607 10602 10599 10598 10596